Satellite: ISS
Catalog number: 25544
Epoch time:      09036.79339567
Element set:     213
Inclination:      051.6417 deg
RA of node:       259.7073 deg
Eccentricity:    0.0008114
Arg of perigee:   353.1459 deg
Mean anomaly:     086.5146 deg
Mean motion:   15.70764581 rev/day
Decay rate:      6.377e-05 rev/day^2
Epoch rev:           58528
Checksum:              327

Satellite: CO-58
Catalog number: 28895
Epoch time:      09035.70294023
Element set:     225
Inclination:      098.0773 deg
RA of node:       289.9067 deg
Eccentricity:    0.0018655
Arg of perigee:   045.9914 deg
Mean anomaly:     314.2834 deg
Mean motion:   14.59738521 rev/day
Decay rate:       -1.6e-07 rev/day^2
Epoch rev:           17440
Checksum:              335

Satellite: FALCON
Catalog number: 30776
Epoch time:      09035.79354431
Element set:    0504
Inclination:      035.4325 deg
RA of node:       182.6160 deg
Eccentricity:    0.0001546
Arg of perigee:   272.9360 deg
Mean anomaly:     087.1179 deg
Mean motion:   15.03159962 rev/day
Decay rate:       2.33e-06 rev/day^2
Epoch rev:           10516
Checksum:              280

Satellite: MAST
Catalog number: 31126
Epoch time:      09035.65361233
Element set:    0522
Inclination:      098.0076 deg
RA of node:       096.4108 deg
Eccentricity:    0.0094476
Arg of perigee:   331.7994 deg
Mean anomaly:     027.8101 deg
Mean motion:   14.53474857 rev/day
Decay rate:      -1.07e-06 rev/day^2
Epoch rev:           09578
Checksum:              306

Satellite: CAPE1
Catalog number: 31130
Epoch time:      09035.14760800
Element set:    0525
Inclination:      098.0112 deg
RA of node:       094.4089 deg
Eccentricity:    0.0102459
Arg of perigee:   338.0108 deg
Mean anomaly:     021.6710 deg
Mean motion:   14.52030833 rev/day
Decay rate:       1.13e-06 rev/day^2
Epoch rev:           09538
Checksum:              248

Satellite: COMPASS
Catalog number: 32787
Epoch time:      09035.39216793
Element set:    0283
Inclination:      097.9612 deg
RA of node:       100.2400 deg
Eccentricity:    0.0017040
Arg of perigee:   102.8836 deg
Mean anomaly:     257.4284 deg
Mean motion:   14.81541317 rev/day
Decay rate:        3.1e-07 rev/day^2
Epoch rev:           04178
Checksum:              279

Satellite: AAUSAT2
Catalog number: 32788
Epoch time:      09036.18128558
Element set:     273
Inclination:      097.9616 deg
RA of node:       101.0625 deg
Eccentricity:    0.0016801
Arg of perigee:   101.5160 deg
Mean anomaly:     258.7927 deg
Mean motion:   14.81661338 rev/day
Decay rate:       1.35e-06 rev/day^2
Epoch rev:            4190
Checksum:              294

Satellite: DO-64
Catalog number: 32789
Epoch time:      09035.86212517
Element set:     283
Inclination:      097.9648 deg
RA of node:       100.8325 deg
Eccentricity:    0.0016694
Arg of perigee:   100.9123 deg
Mean anomaly:     259.3966 deg
Mean motion:   14.81604515 rev/day
Decay rate:        7.9e-07 rev/day^2
Epoch rev:            4185
Checksum:              325

Satellite: CO-66
Catalog number: 32791
Epoch time:      09036.83868719
Element set:     265
Inclination:      097.9631 deg
RA of node:       101.7055 deg
Eccentricity:    0.0017281
Arg of perigee:   096.7436 deg
Mean anomaly:     263.5747 deg
Mean motion:   14.81383478 rev/day
Decay rate:        5.7e-07 rev/day^2
Epoch rev:            4196
Checksum:              347

Satellite: RS-30
Catalog number: 32953
Epoch time:      09035.78423382
Element set:    0225
Inclination:      082.5060 deg
RA of node:       338.9475 deg
Eccentricity:    0.0020071
Arg of perigee:   105.3362 deg
Mean anomaly:     254.9939 deg
Mean motion:   12.42999683 rev/day
Decay rate:        1.0e-07 rev/day^2
Epoch rev:           03194
Checksum:              301

/EX



_______________________________________________
Via the Keps mailing list courtesy of AMSAT-NA
http://amsat.org/mailman/listinfo/keps

--- ViaMAIL!/WC v1.60d
 * Origin: Chowdanet (401-724-4410) telnet://chowdanet.com  (1:323/120)